Location: Basar�n
(42.5449°N, 0.2090°W)
Time: 06:53:29
(UTC+00:00)

Daily predictions for brighter satellites

Satellite Brightness Start Highest point End
(mag) Time Altitude Azimuth Time Altitude Azimuth Time Altitude Azimuth
Cosmos 1354 Rocket 4.2 17:19:06 10° SSW 17:24:26 87° WNW 17:29:48 10° NNE
NOAA 11 4.3 17:19:17 10° SSE 17:24:42 63° ENE 17:30:09 10° N
Cosmos 1455 4.1 17:25:53 10° NE 17:26:47 11° ENE 17:27:41 10° E
Cosmos 2058 Rocket 4.2 17:25:19 10° NNE 17:28:57 23° ENE 17:32:35 10° SE
X-37B 2.3 17:27:33 10° SSW 17:30:07 22° SSE 17:32:41 10° E
Cosmos 1300 2.7 17:27:35 10° N 17:31:22 59° E 17:35:07 10° SSE
Landsat 5 4.1 17:32:31 10° N 17:36:23 54° WNW 17:40:07 10° SSW
Lacrosse 5 2.9 17:36:17 10° NNW 17:40:37 27° NNE 17:44:55 10° E
ISS -2.6 17:39:17 10° SSW 17:42:17 31° SE 17:45:00 12° ENE
Cosmos 1943 3.3 17:38:06 10° NNW 17:43:49 83° WSW 17:49:26 10° SSE
Cosmos 1939 Rocket 3.1 17:39:52 10° SSE 17:43:52 52° ENE 17:47:52 10° N
Cosmos 1726 Rocket 3.7 17:40:23 10° N 17:44:40 52° E 17:48:56 10° SSE
ERS-2 3.3 17:42:57 10° NE 17:45:53 23° E 17:48:48 10° SSE
Meteor 1-24 Rocket 3.6 17:40:54 10° S 17:46:17 85° E 17:51:36 10° N
COSMOS 2455 3.0 17:41:13 10° SSW 17:47:06 59° ESE 17:53:01 10° NE
CZ-2C R/B 4.4 17:45:49 11° ENE 17:47:26 12° E 17:49:27 10° ESE
IRS-1C Rocket 4.4 17:49:50 10° SE 17:54:46 44° ENE 17:59:44 10° N
CZ-4 R/B 2.3 17:52:46 10° SE 17:56:17 28° ENE 17:59:45 10° N
Cosmos 1315 Rocket 3.3 17:53:14 10° NNW 17:57:11 64° W 18:01:09 10° S
Feng Yun 1-1 Rocket 4.2 17:52:05 10° SSE 17:57:24 63° ENE 18:02:52 10° N
COSMO-SKYMED 1 2.5 17:59:10 10° NNE 18:03:31 67° ESE 18:07:48 10° S
Cosmos 2279 Rocket 4.1 17:58:19 10° N 18:04:37 88° W 18:10:52 10° S
USA 267 4.4 18:04:12 15° E 18:07:59 24° SE 18:13:04 10° S
CZ-4 R/B 4.4 18:05:35 10° SSE 18:09:38 58° ENE 18:13:43 10° N
Okean-O 3.0 18:08:15 10° SE 18:12:22 39° ENE 18:16:30 10° N
CZ-4B R/B 1.6 18:10:14 10° N 18:13:36 72° WNW 18:16:53 10° SSW
CZ-2C R/B 3.1 18:08:35 10° SSE 18:13:46 68° ENE 18:19:17 10° N
Cosmos 1844 Rocket 2.8 18:08:42 10° S 18:14:12 55° ESE 18:19:24 12° NNE
Okean O Rocket 3.2 18:11:07 10° SSW 18:15:17 39° W 18:19:28 10° NNW
OE (NEXTSAT) 4.5 18:12:44 10° W 18:16:09 62° NNW 18:17:46 28° ENE
H-2A R/B 2.3 18:11:42 10° SE 18:16:19 41° ENE 18:21:05 10° N
Meteor 1-21 Rocket 4.5 18:11:59 10° SSE 18:17:10 44° E 18:22:24 10° NNE
Aureole 2 Rocket 1.9 18:14:46 10° SSW 18:17:43 70° ESE 18:19:28 23° NNE
Cosmos 1689 Rocket 2.4 18:20:01 37° E 18:20:19 38° E 18:23:00 10° S
Cosmos 1898 Rocket 4.5 18:18:31 10° SSE 18:22:47 25° E 18:23:42 24° E
Cosmos 158 Rocket 4.4 18:17:48 10° N 18:22:52 42° ENE 18:27:57 10° SE
Cosmos 1680 Rocket 4.2 18:20:09 10° N 18:24:45 30° ENE 18:26:36 24° E
CZ-2D R/B 3.6 18:26:03 10° S 18:29:53 68° W 18:33:44 10° NNW
Cosmos 1602 Rocket 4.1 18:26:50 10° SSE 18:30:46 35° E 18:31:34 32° ENE
Cosmos 1818 3.5 18:25:39 10° SSW 18:31:03 78° ESE 18:34:52 20° NE
TELKOM 3 3.7 18:29:48 10° W 18:32:06 44° NNW 18:32:11 44° NNW
SAR-Lupe-4 3.4 18:31:28 21° NNE 18:33:46 71° ESE 18:37:18 10° S
YAOGAN 1 2.5 18:30:00 10° SSE 18:34:15 63° ENE 18:38:33 10° N
Meteor 2-10 Rocket 3.8 18:29:02 10° NNW 18:34:33 76° W 18:39:48 10° S
H-2A R/B 4.5 18:32:14 10° NNW 18:35:40 22° WNW 18:39:01 10° WSW
Cosmos 489 Rocket 4.4 18:30:20 10° NNW 18:36:41 66° ENE 18:42:57 10° SSE
CSL-04 Rocket 3.9 18:33:04 10° SE 18:38:10 45° ENE 18:43:22 10° N
Helios 1A Rocket 2.9 18:35:09 10° SSE 18:39:11 56° ENE 18:43:16 10° N
USA 234 4.2 18:40:19 23° NE 18:42:46 30° NNE 18:48:15 10° NW
Cosmos 1092 Rocket 3.9 18:38:06 10° S 18:44:11 60° E 18:50:14 10° NNE
ATLAS 5 CENTAUR R/B 3.9 18:41:35 10° WNW 18:44:19 17° NNW 18:47:16 10° N
SAR-Lupe-1 4.0 18:42:35 24° N 18:44:38 84° WNW 18:48:12 10° SSW
MOS 1 Rocket 3.7 18:43:28 10° N 18:47:41 54° WNW 18:51:51 10° SSW
Iridium 4 Rocket 3.7 18:42:18 10° N 18:47:49 50° E 18:52:54 10° SSE
Meteor 2-1 Rocket 4.1 18:43:22 10° N 18:48:58 90° E 18:54:27 10° S
SJ 16-02 1.6 18:48:46 10° SSW 18:53:09 68° WNW 18:55:59 21° N
SJ-11-01 4.1 18:48:41 10° SSE 18:53:22 84° ENE 18:58:05 10° NNW
Cosmos 1937 Rocket 4.3 18:53:03 10° SSE 18:56:46 34° SE 18:56:46 34° SE
Aureole 3 3.2 18:54:58 10° NNW 18:58:23 60° W 19:01:21 10° S
Nadezhda 4 Rocket 4.4 18:55:24 10° SSW 19:01:35 62° W 19:07:45 10° N
Cosmos 2112 Rocket 4.0 18:57:14 10° N 19:02:18 53° ENE 19:02:18 53° ENE
Cosmos 1455 2.9 18:59:00 10° NNW 19:02:44 54° W 19:06:28 10° S
X-37B 1.8 19:03:17 10° WSW 19:05:31 42° WSW 19:05:31 42° WSW
Cosmos 1703 3.3 19:03:02 10° SSW 19:06:55 77° W 19:07:02 76° NW
Cosmos 1340 4.3 19:04:15 10° S 19:05:49 24° S 19:05:49 24° S
ARGOS 3.1 19:11:28 10° S 19:16:49 80° WSW 19:22:13 10° NNW
COSMOS 2406 4.5 19:11:43 10° N 19:14:49 27° NNE 19:14:49 27° NNE
Cosmos 44 3.2 19:14:14 10° SSW 19:18:46 81° S 19:18:46 81° S
ISS -1.9 19:15:49 10° W 19:17:58 30° WNW 19:17:58 30° WNW
ERS-2 4.4 19:16:37 11° NNW 19:19:20 23° WNW 19:22:14 10° WSW
Lacrosse 5 1.8 19:18:59 10° NW 19:24:03 77° SW 19:24:15 75° SSW
CSL-04 Debris 4.5 19:21:48 10° S 19:27:08 65° WSW 19:32:30 10° NNW
CZ-2C R/B 2.6 19:27:19 60° NNE 19:28:24 89° ESE 19:34:01 10° SSW
CZ-4 R/B 3.7 19:27:53 10° SSW 19:31:15 24° W 19:34:36 10° NW
NOSS 3-1 (C) 4.0 19:25:40 10° NNW 19:33:13 68° NE 19:34:40 58° E
Cosmos 990 Rocket 4.3 19:30:34 10° SSW 19:35:43 62° WNW 19:36:25 56° NNW
Cosmos 2026 Rocket 4.2 19:32:34 10° SSW 19:38:37 68° W 19:44:47 10° N
Cosmos 1833 Rocket 4.3 19:34:22 10° NNW 19:36:25 22° N 19:36:25 22° N
Cosmos 2082 Rocket 4.4 19:37:01 10° N 19:37:48 13° N 19:37:48 13° N
Meteor 2-19 Rocket 4.4 19:37:24 10° S 19:43:34 83° W 19:44:22 69° N
USA 229 DEB 4.0 19:42:52 10° NNW 19:49:18 60° NNE 19:49:18 60° NNE
USA 229 4.0 19:42:58 10° NNW 19:49:20 59° NNE 19:49:20 59° NNE
USA 267 3.1 19:51:34 88° S 19:51:34 88° S 19:58:04 10° SW
H-2A R/B 4.2 19:51:58 10° SW 19:55:55 24° W 19:59:57 10° NW
NOSS 3-1 (A) 4.2 19:58:14 10° NNW 20:04:26 59° N 20:04:26 59° N
Cosmos 2278 Rocket 4.3 20:01:12 10° SSW 20:02:22 17° SSW 20:02:22 17° SSW
USA 234 4.3 20:27:40 37° NNW 20:27:40 37° NNW 20:31:29 10° NW
